timestamp,gas_concentrations,,corrected_fluxes_and_quality_flags,,,,,,,,,,storage_terms,,,turbulence,,,footprint,,
ISOdate,CO2_1_1_1,H2O_1_1_1,Tau_1_1_1,QcTau_1_1_1,H_1_1_1,QcH_1_1_1,LE_1_1_1, QcLE_1_1_1,Fc_1_1_1, QcFc_1_1_1,E_1_1_1, QcE_1_1_1,Sa_1_1_1,Sw_1_1_1,Sc_1_1_1,ustar_1_1_1,MO_length_1_1_1,ZL_1_1_1,Fetchmax_1_1_1,Fetch70_1_1_1,Fetch90_1_1_1
yyyymmddHHMM,[µmol+1mol_a-1],[mmol+1mol_a-1],[kg+1m-1s-2],[#],[W+1m-2],[#],[W+1m-2],[#],[µmol+1s-1m-2],[#],[mmol+1s-1m-2],[#],[W+1m-2],[W+1m-2],[µmol+1s-1m-2],[m+1s-1],[m],[#],[m],[m],[m]
201405170030,393.62654468525056,4.1971086269136597,5.86786369553492990E-002,1,-33.807976737924626,0,23.913236191157512,0,2.5550027351591806,0,0.53180117855020259,0,-9999.,-9999.,-9999.,0.22119261216712127,26.860848660052390,0.80414436168294434,122.36375878491792,223.71997697806506,335.17329263051971
201405170100,393.40918424364281,4.1916793703811583,0.10385139254053798,1,-52.814621147023303,0,17.273442649982329,0,2.3443717440706400,0,0.38408033012806198,0,-3.8627407750092111,-0.19700190653431005,-0.17536936854233384,0.29419004192282650,40.450589827603373,0.53398479705876178,126.26603482505398,230.85458214654324,345.86223126818106
201405170130,393.41051592967403,4.1531195877354596,5.22711822421640659E-002,1,-24.492559623325072,0,3.7729944901597663,0,0.46753342800409170,0,8.38880148292162342E-002,0,-1.6769772683983661,-1.3994647241031044,1.07459043107516888E-003,0.20869682841502407,31.136757953994881,0.69371384239535760,110.69578192503963,202.38719396785311,303.21289633919434
201405170200,394.93602817403087,4.2817078333033480,0.10384061735398369,0,-39.623420813670890,0,6.6788364750378086,0,1.3040696672245879,0,0.14845862232030049,0,-6.2278318628000902,4.6723293993027175,1.2321185484793442,0.29402283252073480,53.819836657090327,0.40133901070014444,114.87814139778543,210.03388097917116,314.66902689095895
201405170230,396.11467225108515,4.3822844543572499,7.54574712288921950E-002,0,-29.457520445613859,0,6.0427826491055319,0,1.1293921683486725,0,0.13429622738823929,0,-4.4419323127442230,3.6571289721214928,0.95247317372572016,0.25057641025821609,44.805865510610872,0.48207974009306248,109.94643334888342,201.01714577816907,301.16031449558045
201405170300,395.70281834586183,4.2763475387107466,7.77729334818566542E-002,0,-36.184550272582136,0,9.0568765147337551,0,1.2709797305377917,0,0.20129088539162962,0,1.0748440192869151,-3.8507757098517978,-0.33272830793169439,0.25442298461870588,38.177953313201847,0.56577155466662410,105.16520699691590,192.27553911283891,288.06379478162182
201405170330,395.62421922135383,4.2501808017257519,6.28130345134603751E-002,0,-33.258322713282659,0,3.6418211438275998,0,0.74156181183305514,0,8.09461423758832122E-002,0,1.8193642408485982,-0.95066329938549143,-6.34705718486420212E-002,0.22869715842838353,30.164613185390468,0.71607084325090764,102.21968276310075,186.89018138665338,279.99554756713286
201405170400,396.15429875751079,4.3928913089864308,8.23221472259144105E-002,0,-46.684381624546397,0,2.6117706843007711,0,0.91016159740433888,0,5.80417065460089171E-002,0,-4.1347973567181580,5.1881030231111298,0.42825141880786977,0.26176069096625809,32.219062975189665,0.67041055839001629,102.20915283976741,186.87092932845326,279.96670447576469
201405170430,396.61321342454016,4.4941169488522217,6.22322106970489355E-002,0,-43.009509152553498,0,1.2585508537531425,0,0.46575261963895764,0,2.79708974921694109E-002,0,1.7413409357067242,3.6786828965378504,0.37065459937827677,0.22762616514139208,22.997388803685073,0.93923706662466155,93.340507055717893,170.65621632571143,255.67410969009330
201405170500,397.07861392732843,4.5717564962145705,0.12064228361616514,0,-64.934462367605335,0,-0.64469322119699102,1,0.10481087565552283,0,-1.43274108348629744E-002,1,-1.2003837474160572,2.8222699777473230,0.37597331349345808,0.31690155469210779,41.104373608876159,0.52549152568367219,104.95100520659223,191.88390992397012,287.47706289251460
201405170530,398.00467477315476,4.6828804736100569,0.12389460621543777,0,-56.721985299440590,0,-0.53834571232425377,2,-0.60308920582095960,0,-1.19642047911525645E-002,2,0.45501941776761257,4.0390638372853083,0.74805760424304824,0.32116429814448283,48.980763482349282,0.44098945104814019,98.274736757524934,179.67756191246386,269.18972928344806
201405170600,398.04705708976195,4.7564266729919078,0.17198148359828030,0,-44.998929871230217,1,9.6503536549987015,0,0.72608141808915194,1,0.21463858488784585,0,19.458690135294496,2.6628219928826309,3.41295969165172422E-002,0.37898540278694925,101.44791665612891,0.21291713730520509,106.09247644703379,193.97088340507722,290.60372946357285
201405170630,397.87190613895160,4.7674347537859791,0.23631808481580679,0,49.381404160853528,1,17.773240939345207,0,-0.38264768608536937,1,0.39585120810930574,0,33.963371609241364,0.39586424333709525,-0.14028541227328939,0.44545542148395151,-150.10565815289698,-0.14389863957025747,102.11364959991172,186.69631894680097,279.70510630587216
201405170700,397.61885429452548,4.7352272783666995,0.27560591318633820,0,39.752957334610066,0,30.671766488565751,0,0.75970310513005890,1,0.68388841620367069,0,27.048789767359619,-1.1519961033196575,-0.20181353593836207,0.48208875406577006,-236.34100399405290,-9.13933665126662742E-002,105.44836069320047,192.79323437688672,288.83939662359387
201405170730,396.68077110056987,4.6673030133941458,0.32796461007853384,1,91.268941014212459,0,28.378022216885803,0,-0.15066035573741399,1,0.63354717746978595,0,30.758144770890571,-2.4147805255735930,-0.74454492688689744,0.52715248081144006,-134.58772097822683,-0.16049012378695662,106.47571744332272,194.67157017474008,291.65348592637446
201405170800,394.91142997455501,4.3892727664630407,0.35258609176292588,0,93.187151603481070,0,59.815862032292955,1,2.3344196532713593,2,1.3371952388368884,1,32.292648830094123,-9.8198079804869618,-1.3970147066105962,0.54797728652584876,-148.04158367625729,-0.14590495091727515,105.24817339488528,192.42722814910240,288.29105259930594
201405170830,393.30323978619020,3.8128869368489569,0.75272679901421258,0,141.49334782524684,0,44.171099730710282,0,-0.79184445970516748,0,0.98821649492233565,0,18.545624310879077,-20.279370435251444,-1.2658797947615532,0.80180439181071805,-305.37074464684389,-7.07336913527195771E-002,101.70890488387340,185.95631651917654,278.59644782319327
201405170900,392.76725461063876,3.6227738983920905,1.3062384133486908,0,217.64328664945776,0,25.176025713963828,1,-2.6010501236172221,1,0.56354632539888250,1,12.603793896332895,-6.6722712787354155,-0.42107263615341334,1.0572330822411804,-455.10869425339342,-4.74611895416211238E-002,121.58628254708789,222.29850245198367,333.04366476387719
201405170930,392.71188635505894,3.5072660277597620,1.1417641017023616,0,267.04774750523342,0,74.297860202785003,0,-1.8819778046419202,0,1.6638984104920211,0,11.447251113779805,-4.0450144292319479,-4.34230014410310686E-002,0.98926087980026556,-303.88291332403981,-7.10800082957189772E-002,117.64007886902834,215.08358355137980,322.23440152041337
201405171000,392.66692307651340,3.3929941855626620,0.88224245970885351,0,264.71181175288228,0,72.454085575163418,0,-1.5632478915452914,0,1.6230055533480006,0,5.8592538205990961,-3.9972023435531954,-3.52315703816244510E-002,0.86996085096441811,-208.49207781527153,-0.10360105873729200,118.05124985276913,215.83533524591729,323.36066254592481
201405171030,392.51456274910777,3.4026418729215453,1.1507760916184748,0,336.83916216432056,0,82.067459451955386,0,-1.5397527697298585,0,1.8390604282041829,0,9.2094574674285052,0.33685888023195842,-0.11921247014779794,0.99429226468691068,-244.61576900486980,-8.83017480347719902E-002,118.68715146336461,216.99796620050242,325.10249557499162
201405171100,392.53944673041667,3.2320156018588286,0.49814022148380638,1,268.89152518604425,0,63.908182563858560,0,-0.97365475359256948,0,1.4324265848163453,0,4.9810070210327178,-5.9521170673526171,1.94563484998379090E-002,0.65438687825136399,-87.357643149238569,-0.24725941796643208,102.74036367836976,187.84215216242578,281.42177326102762
201405171130,392.43052803310673,3.2773291139160361,0.48216263533206449,0,228.15341969596940,0,60.796485845247389,1,-1.5558683950546985,0,1.3630103606744934,1,5.7346950429561581,1.5787685501668862,-8.50773318291041247E-002,0.64413115087375616,-98.184749170026819,-0.21999343261136428,95.370525847659465,174.36773811866721,261.23464566376225
201405171200,392.30661524280436,3.2463354279740768,0.73949090748794077,0,275.93260389549363,0,97.898460408332411,1,-1.0535216308275093,0,2.1954071167718783,1,6.4788359498691177,-1.0784187308608526,-9.66873231779361159E-002,0.79812407087529524,-154.43334145673663,-0.13986617006568550,107.41436899474365,196.38772457829540,294.22459794717713
201405171230,392.60865364860808,3.1110985335538293,0.66279943063228275,1,397.92710359396932,0,87.774376715211574,1,-1.6704811587396655,0,1.9697500300459334,1,16.574239516882368,-4.6899921380775709,0.23506201598732460,0.75657239643615404,-91.215015257128670,-0.23680311776642399,100.05273155680656,182.92830346790743,274.05993249617103
201405171300,392.58096166933268,3.0583774009704827,0.73482675307024470,0,388.43243879102840,0,101.98805167163231,0,0.21528601665222524,0,2.2891719104414712,0,4.6675218151488860,-1.8267560604713335,-2.15366889767616351E-002,0.79688426014510005,-109.19439135272445,-0.19781235768993616,106.72958417778743,195.13571953198380,292.34886624261219
201405171330,392.55692643700650,3.1345982032616519,0.51562816610424644,0,202.99775848425855,0,51.602173495640102,0,-0.42125467153498164,0,1.1583020080142485,0,1.3440130991647805,2.6401252550482295,-1.86875838690978742E-002,0.66763240077130703,-122.86709781283332,-0.17579970866491734,98.784283809568493,180.60917643529655,270.58545760104420
201405171400,392.39904232805372,3.2673001094110594,0.89001883351905897,0,254.80768666764749,0,60.880340117012132,0,-0.81290807023954770,0,1.3670714154912420,0,8.7082171623994906,4.5879544492315283,-0.12257290787640505,0.87781698008690667,-222.47543950463304,-9.70893688224411106E-002,126.29145556830936,230.90105937274430,345.93186262228977
201405171430,392.30013410919361,3.2565082600603787,0.49237549805687469,1,258.30080805488950,0,72.661233565898883,0,-2.4781555637251031,0,1.6317116576158062,0,1.4395653379994822,-0.37295995055532966,-7.67607757934634372E-002,0.65301965880456625,-90.343777662161813,-0.23908674796367974,103.59916876894587,189.41232176983419,283.77417345528943
201405171500,392.44164161315933,3.3199573095220161,0.52149936335148250,0,183.81025013302724,0,58.709996410862253,0,-0.68532886551103722,0,1.3190429171608646,0,11.172154240970803,2.1877052592868842,0.10962005952751921,0.67267974714477430,-138.76444936647991,-0.15565946536460457,107.58215270716605,196.69448671647399,294.68418352954905
201405171530,392.45528072570789,3.3433981138860203,0.76749349250900245,1,264.60954855955691,0,46.634194864760623,1,1.0374408626522627,0,1.0483339414012318,1,13.415915065651605,0.80605753982039907,1.05432574495552267E-002,0.81692403054315699,-172.64610809654164,-0.12511142149767743,117.02002412066950,213.94992571506071,320.53597550210247
201405171600,392.71097354596395,3.0914263936287321,0.27232922932590470,0,116.01269289164391,0,70.634077661684373,1,1.4530049530913951,1,1.5875922996687162,1,-3.8086139792971800,-8.6715714266567243,0.19778312900667880,0.48644050272431905,-83.138190717001663,-0.25980839628234570,89.019539222432016,162.75610902445692,243.83830936478080
201405171630,392.80953385347198,3.0293294913638547,0.54241831972518562,0,93.952722056160411,0,38.184162628944115,0,-2.3879137236624519,0,0.85824725498006582,0,0.24039475336084254,-2.1371333886425283,7.62417568912957255E-002,0.68649061138177014,-288.55800913976208,-7.48549661275841327E-002,115.07912818887490,210.40134893473197,315.21956084981775
201405171700,392.77031159375906,3.1682414069243037,0.60989631168806679,0,24.288155909963571,0,20.139593669534868,1,0.47067290137496087,0,0.45265271167393001,1,-0.79645066800446207,4.7817272794777397,-3.03453629421694647E-002,0.72790115878599027,-1330.7038773120507,-1.62320110193342367E-002,137.86522075290927,252.06159339327462,377.63419853919652
201405171730,392.70532536838084,3.3424055199723526,0.41324335519832794,0,19.239960455368724,1,35.806826027561556,1,0.39454506132781564,0,0.80479342053173653,1,0.22543850822879058,5.9957244408553168,-5.02831985622604755E-002,0.59915713554763017,-936.97813544196356,-2.30528324866529459E-002,120.47748216858828,220.27126172634345,330.00648874524148
201405171800,392.97814729047070,3.4195193236414481,0.30764283084648758,0,36.615917706822380,1,30.232069524093760,1,0.83956003491991971,1,0.67966124528416005,1,5.7295681975105461,2.6521124726946237,0.21094231414154493,0.51716140480738138,-316.64774352492606,-6.82146026355614360E-002,109.19163795740634,199.63713907290585,299.09281298094987
201405171830,393.11879114954041,3.4660933394141158,0.22487781623638917,1,4.3036015587329528,0,21.955239703278078,0,0.65384865918427759,1,0.49353053591943546,0,-2.6372795936602729,1.6028832823187724,0.10880649822657637,0.44203334842688624,-1682.4986229225567,-1.28380491405574379E-002,116.18004110667187,212.41416886663117,318.23513189161673
201405171900,393.10647399725326,3.4546977621259103,1.73736669440576162E-002,0,-4.7580509853669835,0,4.6195636094346453,0,2.37598617130900525E-002,1,0.10379207988954681,0,-11.518458235093812,-0.39315745165000127,-9.54780970832918956E-003,0.12274303119531645,32.586561654695764,0.66284992657049524,268.44920801576649,2642.0000000000000,-9999.
201405171930,393.18058449759241,3.4605224112713904,2.86283724412319867E-003,1,-0.30603218917403380,1,0.17038588855229667,1,3.40568290720098046E-002,1,3.82713420886603107E-003,1,-6.6853765190358514,0.20124485956356694,5.75141677465504583E-002,4.97965300561409308E-002,33.833135382112246,0.63842738061515969,399.02306274711572,4173.0000000000000,-9999.
201405172000,392.60171237171681,3.4777569830343253,6.81509988522533729E-003,1,0.77956091486584056,1,-0.27080825633934774,1,-1.83382474312300606E-002,1,-6.07975698504472500E-003,1,-11.735781068789114,0.59694391946262404,-0.45013210895231626,7.67550839437967647E-002,-48.644385694598661,-0.44403890997020867,1.8650174982724503,8.0000000000000000,22.000000000000000
201405172030,392.85520254269056,3.4981207079471295,2.51384381741468696E-002,1,11.091683367538913,2,-2.0882580246366618,2,1.83080925301741804E-002,2,-4.68829876620545372E-002,2,0.37009456518048484,0.70540341507318061,0.19713901455549265,0.14740587998985608,-24.219558483880579,-0.89184119579950083,115.97666251842747,360.00000000000000,809.00000000000000
201405172100,393.33640798130057,3.6629772057537795,3.68845312749934845E-002,0,-35.483580179678057,0,7.9025714772299098,0,1.1290508708112683,0,0.17733743291312590,0,-10.858481298569956,5.7237293941126222,0.37491734723195980,0.17839577936310444,13.421420209851442,1.6093676870459215,244.98300708008682,2093.0000000000000,9740.0000000000000
201405172130,393.70570076754495,3.6525077198589377,6.66231185289105771E-002,1,-23.617596625733047,2,-0.75617361343912293,2,0.70498694582413268,1,-1.69628939397607897E-002,2,-8.3875589869561438,-0.36410504573618369,0.28810486605460989,0.23959992527949212,48.854057953875682,0.44213318001941809,105.26466312727273,192.45737663903708,288.33622053100225
201405172200,394.30638392715548,3.9050526652939426,5.45774511168955270E-002,0,-35.544180141466946,0,-3.6040908302425501,1,0.29241132161826355,0,-8.07845153043466602E-002,1,-18.971114384043169,8.8173122833888904,0.47008391856353821,0.21653420310894197,23.963626354547635,0.90136608209553881,102.37288557818134,187.17028499415247,280.41519381272656
201405172230,395.57032521116344,4.1949096901690774,9.21296211216912492E-002,0,-49.597715199837808,0,-2.9294268184255610,2,0.41245207009566132,0,-6.56169169414256848E-002,2,-16.460654734390250,10.153407156582848,0.99171764142333374,0.28098152140362126,37.527183200322895,0.57558276848804757,106.00612498422663,193.81300539067922,290.36719942886373
201405172300,396.45109083457271,4.3856805198050424,8.99709282098724583E-002,0,-59.171948052544131,0,2.9867698173184580,0,1.0594804942173814,0,6.68757025523386284E-002,0,-9.1813952427018108,6.6949345927565505,0.69208801606601211,0.27747572203804483,30.294237025213992,0.71300689903568959,97.216695863383976,177.74312571313845,266.29159135643079
201405172330,397.28800927818980,4.4840113824040122,0.11954209797523649,0,-69.628793798749911,0,3.5894008765452341,0,0.97039469112781251,0,8.03253720858363163E-002,0,-13.032874241309429,3.4600742447609698,0.65903653159610509,0.31950652041309963,39.308782506332257,0.54949552295394688,99.376047596865988,181.69110937185624,272.20639029400473
201405180000,398.65047926776310,4.5869465677941150,8.76856031611215059E-002,0,-56.604204171359818,0,3.6346822270350629,0,0.60185119300905754,0,8.13039664705224735E-002,0,-10.273741754162446,3.6296989379931217,1.0746795493139747,0.27341923105261851,30.304498785370129,0.71276545944484215,89.896369124167620,164.35923373538355,246.24008230931904
